Weather History for KCLM - May, 2013

Change the Weather History Date:

Sunday, May 12, 2013

  Actual Average (WUND) Record (WUND)
Temperature  
Mean Temperature 58 °F -  
Max Temperature 62 °F - - (-1)
Min Temperature 53 °F - - (-1)
Degree Days  
Heating Degree Days 8    
Growing Degree Days 8 (Base 50)    
Moisture  
Dew Point 56 °F    
Average Humidity 93    
Maximum Humidity 97    
Minimum Humidity 84    
Precipitation  
Precipitation 0.51 in - - ()
Sea Level Pressure  
Sea Level Pressure 30.04 in    
Wind  
Wind Speed 3 mph (North)    
Max Wind Speed 12 mph    
Max Gust Speed -    
Visibility 7 miles    
Events Rain    
Averages and records for this station are not official NWS values.
T = Trace of Precipitation, MM = Missing Value Source: NWS Daily Summary

Daily Weather History Graph

Daily Weather History Graph

Search for Another Location

Airport or City:

Trip Planner

Search our weather history database for the weather conditions in past years. The results will help you decide how hot, cold, wet, or windy it might be!

Date:

Astronomy

May. 12, 2013 Rise Set
Actual Time 5:38 AM PDT 8:43 PM PDT
Civil Twilight 5:01 AM PDT 9:20 PM PDT
Nautical Twilight 4:14 AM PDT 10:07 PM PDT
Astronomical Twilight 3:15 AM PDT 11:07 PM PDT
Moon 7:35 AM PDT (5/12) 11:16 PM PDT (5/12)
Length of Visible Light 16h 18m
Length of Day
15h 04m
Waxing Crescent, 7% of the Moon is Illuminated
May 12
Waxing Crescent
May 17
First Quarter
May 24
Full
May 31
Last Quarter
Jun 8
New

Hourly Weather History & Observations

Time (PDT) Temp. Dew Point Humidity Pressure Visibility Wind Dir Wind Speed Gust Speed Precip Events Conditions
12:44 AM 57.9 °F 55.9 °F 93% 30.04 in 8.0 mi Calm Calm - 0.01 in Rain Light Rain
12:53 AM 57.9 °F 55.9 °F 93% 30.04 in 5.0 mi WSW 3.5 mph - 0.02 in Rain Light Rain
1:19 AM 57.9 °F 55.9 °F 93% 30.04 in 7.0 mi SW 3.5 mph - 0.02 in Rain Light Rain
1:26 AM 57.9 °F 55.9 °F 93% 30.04 in 6.0 mi Calm Calm - 0.02 in Rain Light Rain
1:53 AM 57.9 °F 57.0 °F 97% 30.04 in 6.0 mi SW 3.5 mph - 0.04 in Rain Light Rain
2:53 AM 57.9 °F 55.9 °F 93% 30.03 in 4.0 mi NW 3.5 mph - 0.08 in Rain Light Rain
3:00 AM 57.9 °F 55.9 °F 93% 30.03 in 2.5 mi Calm Calm - 0.02 in Rain Rain
3:17 AM 57.9 °F 55.9 °F 93% 30.03 in 3.0 mi Calm Calm - 0.07 in Rain Rain
3:53 AM 57.9 °F 57.0 °F 97% 30.02 in 4.0 mi Calm Calm - 0.14 in Rain Light Rain
4:53 AM 57.0 °F 55.9 °F 96% 30.02 in 6.0 mi NNW 4.6 mph - 0.02 in Rain Light Rain
5:53 AM 57.9 °F 55.9 °F 93% 30.03 in 10.0 mi Calm Calm - 0.02 in Rain Light Rain
6:10 AM 57.9 °F 57.0 °F 97% 30.03 in 9.0 mi Calm Calm - 0.01 in Rain Light Rain
6:30 AM 57.9 °F 57.0 °F 97% 30.04 in 10.0 mi SE 3.5 mph - 0.01 in Rain Light Rain
6:53 AM 57.9 °F 57.0 °F 97% 30.04 in 7.0 mi South 3.5 mph - 0.03 in Rain Light Rain
6:57 AM 59.0 °F 57.0 °F 93% 30.04 in 6.0 mi South 4.6 mph - 0.00 in Rain Light Rain
7:18 AM 59.0 °F 57.0 °F 93% 30.04 in 7.0 mi ESE 5.8 mph - 0.01 in Rain Light Rain
7:53 AM 59.0 °F 57.0 °F 93% 30.04 in 4.0 mi East 4.6 mph - 0.04 in Rain Light Rain
8:53 AM 57.9 °F 57.0 °F 97% 30.05 in 4.0 mi NE 3.5 mph - 0.01 in   Overcast
9:05 AM 59.0 °F 57.9 °F 96% 30.05 in 5.0 mi NE 3.5 mph - N/A   Overcast
9:14 AM 59.0 °F 57.0 °F 93% 30.05 in 3.0 mi ENE 4.6 mph - N/A   Overcast
9:17 AM 59.0 °F 57.0 °F 93% 30.05 in 2.5 mi ENE 3.5 mph - N/A   Overcast
9:25 AM 59.0 °F 57.0 °F 93% 30.05 in 2.5 mi Calm Calm - N/A   Overcast
9:33 AM 59.0 °F 57.0 °F 93% 30.05 in 1.8 mi East 4.6 mph - N/A   Overcast
9:36 AM 59.0 °F 57.0 °F 93% 30.06 in 4.0 mi East 4.6 mph - N/A   Overcast
9:48 AM 59.0 °F 57.2 °F 94% 30.05 in 10.0 mi East 8.1 mph - N/A   Overcast
9:53 AM 59.0 °F 57.0 °F 93% 30.06 in 6.0 mi East 6.9 mph - N/A   Overcast
10:06 AM 59.0 °F 57.0 °F 93% 30.05 in 4.0 mi East 9.2 mph - N/A   Overcast
10:37 AM 59.0 °F 57.0 °F 93% 30.05 in 9.0 mi East 5.8 mph - N/A   Overcast
10:53 AM 60.1 °F 57.0 °F 90% 30.05 in 10.0 mi East 6.9 mph - N/A   Overcast
11:53 AM 61.0 °F 57.0 °F 87% 30.07 in 10.0 mi Variable 4.6 mph - 0.00 in   Overcast
12:53 PM 61.0 °F 57.0 °F 87% 30.07 in 9.0 mi NNE 3.5 mph - 0.00 in Rain Light Rain
1:53 PM 61.0 °F 57.0 °F 87% 30.07 in 10.0 mi North 3.5 mph - 0.00 in   Overcast
2:01 PM 62.1 °F 57.0 °F 84% 30.07 in 10.0 mi NNE 5.8 mph - N/A   Overcast
2:39 PM 60.1 °F 55.9 °F 86% 30.07 in 10.0 mi NNW 5.8 mph - N/A   Overcast
2:53 PM 59.0 °F 55.0 °F 87% 30.07 in 10.0 mi North 3.5 mph - N/A   Overcast
3:17 PM 60.1 °F 57.0 °F 90% 30.07 in 8.0 mi North 4.6 mph - 0.00 in Rain Light Rain
3:53 PM 59.0 °F 55.9 °F 90% 30.06 in 10.0 mi NW 6.9 mph - 0.00 in   Overcast
4:35 PM 59.0 °F 55.9 °F 90% 30.05 in 10.0 mi NW 5.8 mph - 0.03 in Rain Light Rain
4:53 PM 57.9 °F 55.0 °F 90% 30.05 in 10.0 mi NNW 5.8 mph - 0.04 in Rain Light Rain
5:53 PM 55.9 °F 54.0 °F 93% 30.05 in 10.0 mi NW 9.2 mph - 0.01 in Rain Light Rain
6:07 PM 55.0 °F 53.1 °F 93% 30.04 in 10.0 mi NW 11.5 mph - 0.01 in Rain Light Rain
6:53 PM 55.0 °F 54.0 °F 96% 30.04 in 4.0 mi WNW 4.6 mph - 0.02 in Rain Light Rain
7:53 PM 55.0 °F 53.1 °F 93% 30.02 in 10.0 mi WNW 4.6 mph - 0.01 in   Overcast
8:15 PM 55.0 °F 53.1 °F 93% 30.02 in 4.0 mi West 4.6 mph - 0.03 in Rain Light Rain
8:53 PM 54.0 °F 53.1 °F 97% 30.02 in 10.0 mi WNW 3.5 mph - 0.03 in   Overcast
9:12 PM 54.0 °F 53.1 °F 97% 30.02 in 10.0 mi WNW 6.9 mph - N/A   Overcast
9:53 PM 54.0 °F 53.1 °F 97% 30.03 in 10.0 mi WNW 6.9 mph - N/A   Overcast
10:20 PM 54.0 °F 53.1 °F 97% 30.03 in 10.0 mi NW 5.8 mph - N/A   Overcast
10:46 PM 54.0 °F 52.0 °F 93% 30.03 in 10.0 mi NW 5.8 mph - N/A   Overcast
10:53 PM 54.0 °F 52.0 °F 93% 30.03 in 10.0 mi NW 5.8 mph - N/A   Overcast
11:11 PM 53.1 °F 52.0 °F 96% 30.03 in 10.0 mi NW 5.8 mph - N/A   Overcast
11:53 PM 53.1 °F 52.0 °F 96% 30.03 in 10.0 mi WNW 3.5 mph - N/A   Overcast